Regional Weather Roundup
Issued by NWS

Home | Current Version | Previous Version | Text Only | Print | Product List | Glossary On
Versions: 1 2 3 4 5 6 7 8 9 10 11 12 13 14 15 16 17 18 19 20 21 22 23 24 25 26 27 28 29 30 31 32 33 34 35 36 37 38 39 40 41 42 43 44 45 46 47 48 49 50
349
ASUS43 KTOP 282308
RWRKS

WEATHER ROUNDUP FOR KANSAS
NATIONAL WEATHER SERVICE GOODLAND KS
600 PM CDT TUE MAR 28 2017

NOTE:  "FAIR" INDICATES FEW OR NO CLOUDS BELOW 12,000 FEET WITH NO
SIGNIFICANT WEATHER AND/OR OBSTRUCTIONS TO VISIBILITY.

KSZ001>006-013>018-027>032-041>047-290000-
NORTHWEST KANSAS

CITY           SKY/WX    TMP DP  RH WIND       PRES   REMARKS
GOODLAND       LGT RAIN  41  39  93 E14       29.94F
HAYS           TSTM      48  46  93 E6        29.96R FOG
HILL CITY      RAIN      47  46  97 E9        30.00R FOG
RUSSELL        LGT RAIN  49  46  90 NE12      29.92S FOG
$$

KSZ061>065-074>080-084>089-290000-
SOUTHWEST KANSAS

CITY           SKY/WX    TMP DP  RH WIND       PRES   REMARKS
DODGE CITY     HVY RAIN  46  45  96 E14       29.91R FOG
ELKHART          N/A     44  35  70 E17         N/A
GARDEN CITY    LGT RAIN  45  44  97 E16G32    29.84R
GREAT BEND     LGT RAIN  48  46  93 NE12      29.91F
LIBERAL        CLOUDY    46  41  81 E23       29.80R
PRATT          TSTM      43  42  97 NW8       29.96R VSB 1/2
$$

KSZ066>073-081>083-090>101-290000-
SOUTHEAST KANSAS

CITY           SKY/WX    TMP DP  RH WIND       PRES   REMARKS
CHANUTE        CLOUDY    63  49  60 E14       29.91S
COFFEYVILLE    SUNNY     65  52  62 NE13      29.87F
MEDICINE LODGE   N/A     50  47  89 E13       29.85R
NEWTON         CLOUDY    51  47  86 E13       29.91F
PARSONS        SUNNY     64  51  62 E7        29.91F
WICHITA INTL   CLOUDY    54  49  83 NE20      29.87F
WICHITA JABRA  CLOUDY    54  48  80 NE17      29.89F
WICHITA MCCONL CLOUDY    55  47  75 E18G26    29.88F
WINFIELD       PTSUNNY   57  48  72 NE13G23   29.87F
$$

KSZ007>012-019>026-033>040-048>060-102>105-290000-
NORTHEAST KANSAS

CITY           SKY/WX    TMP DP  RH WIND       PRES   REMARKS
CONCORDIA      CLOUDY    52  44  74 E8        30.01R
EMPORIA        CLOUDY    54  50  86 NE9       29.95S
LAWRENCE       CLOUDY    54  51  90 E14       30.01R
MANHATTAN      CLOUDY    54  47  77 NE7       30.02R
MARYSVILLE     CLOUDY    52  43  71 E5        30.05R
OLATHE IND     LGT RAIN  53  50  89 NE10      30.00R FOG
OLATHE EXE     CLOUDY    52  51  97 E10       30.00R
SALINA         LGT RAIN  53  48  83 E8        29.97F
TOPEKA BILLARD CLOUDY    55  50  83 E10       30.02R
TOPEKA FORBES  CLOUDY    55  50  83 E7        30.01R
$$




USA.gov is the U.S. government's official web portal to all federal, state and local government web resources and services.